Terra Bella
DateTemperatureDew Point
05/04 - 08:30 AM54.2°54.2°
05/04 - 08:15 AM54.3°54.3°
05/04 - 08:00 AM53.9°53.9°
05/04 - 07:45 AM53.3°53.3°
05/04 - 07:30 AM52.9°52.9°
05/04 - 07:15 AM53.0°53.0°
05/04 - 07:00 AM53.0°53.0°
05/04 - 06:45 AM53.0°53.0°
05/04 - 06:30 AM52.9°52.7°
05/04 - 06:15 AM53.4°52.3°
05/04 - 06:00 AM53.7°51.2°
05/04 - 05:45 AM54.6°50.3°
05/04 - 05:30 AM55.3°49.5°
05/04 - 05:15 AM55.5°48.9°
05/04 - 05:00 AM55.8°47.9°
05/04 - 04:45 AM56.2°47.4°
05/04 - 04:30 AM56.2°47.2°
05/04 - 04:15 AM56.3°47.1°
05/04 - 04:00 AM56.4°46.9°
05/04 - 03:45 AM56.6°46.7°
05/04 - 03:30 AM56.8°46.6°
05/04 - 03:15 AM57.0°46.5°
05/04 - 03:00 AM57.2°46.5°
05/04 - 02:45 AM57.3°46.5°
05/04 - 02:30 AM57.5°46.6°
05/04 - 02:15 AM57.5°46.9°
05/04 - 02:00 AM57.6°46.8°
05/04 - 01:45 AM57.7°46.8°
05/04 - 01:30 AM57.8°46.6°
05/04 - 01:15 AM57.8°46.4°
05/04 - 01:00 AM57.8°46.1°
05/04 - 12:45 AM57.9°46.0°
05/04 - 12:30 AM57.9°46.0°
05/04 - 12:15 AM57.8°46.1°
05/04 - 12:00 AM57.6°45.9°
05/03 - 11:45 PM57.4°45.5°
05/03 - 11:30 PM57.5°44.9°
05/03 - 11:15 PM58.5°44.4°
05/03 - 11:00 PM59.4°44.3°
05/03 - 10:45 PM60.2°44.6°
05/03 - 10:30 PM60.5°44.6°
05/03 - 10:15 PM60.4°44.6°
05/03 - 10:00 PM60.5°44.7°
05/03 - 09:45 PM61.0°44.7°
05/03 - 09:30 PM61.2°45.0°
05/03 - 09:15 PM61.4°45.3°
05/03 - 09:00 PM61.7°45.0°
05/03 - 08:45 PM61.9°44.9°
05/03 - 08:30 PM62.3°45.2°
05/03 - 08:15 PM62.6°45.3°
05/03 - 08:00 PM63.1°45.3°
05/03 - 07:45 PM64.2°45.0°
05/03 - 07:30 PM65.4°44.8°
05/03 - 07:15 PM67.0°45.5°
05/03 - 07:00 PM69.0°47.0°
05/03 - 06:45 PM70.8°47.9°
05/03 - 06:30 PM71.1°49.7°
05/03 - 06:15 PM71.8°50.3°
05/03 - 06:00 PM73.8°50.6°
05/03 - 05:45 PM76.4°51.8°
05/03 - 05:30 PM76.6°51.8°
05/03 - 05:15 PM76.8°52.3°
05/03 - 05:00 PM77.9°52.5°
05/03 - 04:45 PM77.7°53.7°
05/03 - 04:30 PM74.3°53.3°
05/03 - 04:15 PM74.3°53.6°
05/03 - 04:00 PM76.8°54.3°
05/03 - 03:45 PM76.1°54.5°
05/03 - 03:30 PM78.5°55.5°
05/03 - 03:15 PM77.7°54.8°
05/03 - 03:00 PM76.9°55.1°
05/03 - 02:45 PM76.7°55.2°
05/03 - 02:30 PM75.4°55.3°
05/03 - 02:15 PM76.2°55.2°
05/03 - 02:00 PM76.0°55.6°
05/03 - 01:45 PM74.9°55.5°
05/03 - 01:30 PM75.6°56.0°
05/03 - 01:15 PM75.5°56.2°
05/03 - 01:00 PM73.2°56.3°
05/03 - 12:45 PM71.3°56.1°
05/03 - 12:30 PM70.2°55.4°
05/03 - 12:15 PM71.4°56.2°
05/03 - 12:00 PM71.2°56.0°
05/03 - 11:45 AM72.5°56.9°
05/03 - 11:30 AM70.1°56.3°
05/03 - 11:15 AM69.6°55.5°
05/03 - 11:00 AM69.1°55.9°
05/03 - 10:45 AM67.9°55.7°
05/03 - 10:30 AM67.5°55.7°
05/03 - 10:15 AM68.0°55.7°
05/03 - 10:00 AM69.0°55.8°
05/03 - 09:45 AM67.5°55.5°
05/03 - 09:30 AM66.1°54.7°
05/03 - 09:15 AM66.7°55.4°
05/03 - 09:00 AM64.1°54.4°
05/03 - 08:45 AM62.5°54.2°
05/03 - 08:30 AM62.7°53.5°
05/03 - 08:15 AM63.6°54.3°
05/03 - 08:00 AM61.6°53.4°
05/03 - 07:45 AM61.2°52.6°
05/03 - 07:30 AM62.7°53.6°
05/03 - 07:15 AM60.7°54.3°
05/03 - 07:00 AM58.5°55.8°
05/03 - 06:45 AM55.5°55.4°
05/03 - 06:30 AM52.7°52.7°
05/03 - 06:15 AM50.9°50.9°
05/03 - 06:00 AM50.8°50.8°
05/03 - 05:45 AM51.0°51.0°
05/03 - 05:30 AM51.2°51.2°
05/03 - 05:15 AM51.7°51.7°
05/03 - 05:00 AM52.1°52.1°
05/03 - 04:45 AM52.7°52.7°
05/03 - 04:30 AM53.4°53.4°
05/03 - 04:15 AM53.9°53.9°
05/03 - 04:00 AM54.6°54.5°
05/03 - 03:45 AM55.5°55.2°
05/03 - 03:30 AM56.1°55.6°
05/03 - 03:15 AM56.9°56.2°
05/03 - 03:00 AM57.4°56.3°
05/03 - 02:45 AM57.7°56.3°
05/03 - 02:30 AM57.3°55.2°
05/03 - 02:15 AM57.0°53.9°
05/03 - 02:00 AM56.5°52.7°
05/03 - 01:45 AM56.1°51.9°
05/03 - 01:30 AM56.3°52.0°
05/03 - 01:15 AM57.0°51.5°
05/03 - 01:00 AM57.3°51.6°
05/03 - 12:45 AM57.1°51.8°
05/03 - 12:30 AM57.4°51.5°
05/03 - 12:15 AM57.9°51.3°
05/03 - 12:00 AM58.5°51.5°
05/02 - 11:45 PM59.2°51.3°
05/02 - 11:30 PM60.0°51.4°
05/02 - 11:15 PM60.7°51.4°
05/02 - 11:00 PM61.6°51.5°
05/02 - 10:45 PM62.7°51.4°
05/02 - 10:30 PM63.5°51.3°
05/02 - 10:15 PM64.2°50.8°
05/02 - 10:00 PM65.6°51.5°
05/02 - 09:45 PM67.1°50.6°
05/02 - 09:30 PM67.7°50.0°
05/02 - 09:15 PM68.5°50.7°
05/02 - 09:00 PM70.3°50.4°
05/02 - 08:45 PM72.3°51.3°
05/02 - 08:30 PM74.3°51.7°
05/02 - 08:15 PM76.1°52.2°
05/02 - 08:00 PM76.4°51.8°
05/02 - 07:45 PM77.1°52.4°
05/02 - 07:30 PM78.9°51.8°
05/02 - 07:15 PM80.7°51.4°
05/02 - 07:00 PM82.7°51.2°
05/02 - 06:45 PM84.2°51.2°
05/02 - 06:30 PM85.4°51.2°
05/02 - 06:15 PM86.6°51.4°
05/02 - 06:00 PM88.6°51.5°
05/02 - 05:45 PM91.0°51.6°
05/02 - 05:30 PM90.4°51.6°
05/02 - 05:15 PM91.0°51.6°
05/02 - 05:00 PM92.7°52.4°
05/02 - 04:45 PM92.8°52.6°
05/02 - 04:30 PM92.9°52.8°
05/02 - 04:15 PM92.6°52.7°
05/02 - 04:00 PM92.6°52.7°
05/02 - 03:45 PM92.6°52.1°
05/02 - 03:30 PM92.2°52.0°
05/02 - 03:15 PM91.6°52.6°
05/02 - 03:00 PM91.5°52.3°
05/02 - 02:45 PM91.7°51.8°
05/02 - 02:30 PM91.2°51.9°
05/02 - 02:15 PM91.2°52.6°
05/02 - 02:00 PM91.2°52.9°
05/02 - 01:45 PM89.3°53.4°
05/02 - 01:30 PM89.1°51.9°
05/02 - 01:15 PM89.6°53.2°
05/02 - 01:00 PM89.4°52.4°
05/02 - 12:45 PM88.3°54.4°
05/02 - 12:30 PM88.2°56.5°
05/02 - 12:15 PM86.6°57.7°
05/02 - 12:00 PM85.7°59.5°
05/02 - 11:45 AM85.5°60.0°
05/02 - 11:30 AM84.1°59.3°
05/02 - 11:15 AM83.2°59.1°
05/02 - 11:00 AM83.1°59.7°
05/02 - 10:45 AM83.4°59.3°
05/02 - 10:30 AM82.0°59.3°
05/02 - 10:15 AM79.7°58.2°
05/02 - 10:00 AM78.2°57.7°
05/02 - 09:45 AM78.2°58.2°
05/02 - 09:30 AM77.2°58.3°
05/02 - 09:15 AM75.6°58.2°
05/02 - 09:00 AM74.8°58.4°